Regional Weather Roundup
Issued by NWS

Home | Current Version | Previous Version | Text Only | Print | Product List | Glossary Off
Versions: 1 2 3 4 5 6 7 8 9 10 11 12 13 14 15 16 17 18 19 20 21 22 23 24 25 26 27 28 29 30 31 32 33 34 35 36 37 38 39 40 41 42 43 44 45 46 47 48 49 50

000
ASUS44 KMEG 270310
RWRTN
TENNESSEE HOURLY STATE WEATHER ROUNDUP
NATIONAL WEATHER SERVICE MEMPHIS TN
1000 PM CDT TUE AUG 26 2014

TNZ002-004-019-021-049-052-054-088>092-270400-
WEST TENNESSEE

CITY           SKY/WX    TMP DP  RH WIND       PRES   REMARKS
MEMPHIS INTL   CLEAR     84  71  65 E5        30.06R
NWS MEMPHIS      N/A     79 N/A N/A MISG        N/A
JACKSON        CLEAR     75  72  90 CALM      30.07S
DYERSBURG      CLEAR     73  64  73 CALM      30.08S
UNION CITY     CLEAR     73  73 100 CALM      30.07R
PARIS          CLEAR     72  70  94 CALM      30.09R
HUNTINGDON     CLEAR     75  73  93 CALM      30.08R
LEXINGTON      CLEAR     75  72  88 CALM      30.07S
SAVANNAH       CLEAR     73  73 100 CALM      30.08F
$$

TNZ008-025-027-028-033-062-065-066-270400-
NORTH MIDDLE TENNESSEE

CITY           SKY/WX    TMP DP  RH WIND       PRES   REMARKS
NASHVILLE      PTCLDY    78  70  76 CALM      30.09S
DICKSON        CLEAR     73  72  94 CALM      30.09S
PORTLAND       CLEAR     75  72  88 CALM      30.09S
CLARKSVILLE    PTCLDY    75  72  90 NW3       30.08R
LEBANON        CLEAR     74  70  87 CALM      30.07F
SMYRNA         CLEAR     73  71  93 CALM      30.09S
MURFREESBORO   CLEAR     76  69  79 CALM      30.08S
COOKEVILLE     CLEAR     72  70  94 CALM      30.10F
LIVINGSTON     CLEAR     73  68  84 CALM      30.13S
GALLATIN       CLEAR     76  73  90 CALM      30.10S
CROSSVILLE     CLEAR     70  66  87 CALM      30.16S
$$

TNZ061-075-076-078-094-096-097-270400-
SOUTH MIDDLE TENNESSEE

CITY           SKY/WX    TMP DP  RH WIND       PRES   REMARKS
LEWISBURG      CLEAR     69  67  93 CALM      30.10R
FAYETTEVILLE   CLEAR     72  66  83 CALM      30.10S
TULLAHOMA      PTCLDY    70  66  88 CALM      30.12S
WINCHESTER     CLEAR     70  68  94 CALM      30.11S
MCMINNVILLE    CLEAR     70  70 100 CALM      30.11S
COLUMBIA       CLEAR     72  72 100 CALM      30.08S
SHELBYVILLE    CLEAR     72  70  94 CALM      30.11S
$$

TNZ017-018-042-046-047-270400-
NORTHEAST TENNESSEE

CITY           SKY/WX    TMP DP  RH WIND       PRES   REMARKS
TRI CITIES     CLEAR     67  62  84 CALM      30.15S
ELIZABETHTON   CLEAR     64  55  72 NE5       30.17F
$$

TNZ012-013-036-069-073-074-270400-
CENTRAL EAST TENNESSEE

CITY           SKY/WX    TMP DP  RH WIND       PRES   REMARKS
KNOXVILLE      CLEAR     73  65  75 CALM      30.10S
OAK RIDGE      CLEAR     71  68  90 CALM      30.12F
GATLINBURG     CLEAR     66  64  94 CALM      30.11F
MORRISTOWN     CLEAR     70  63  78 CALM      30.14S
$$

TNZ083-085-099-270400-
SOUTHEAST TENNESSEE

CITY           SKY/WX    TMP DP  RH WIND       PRES   REMARKS
CHATTANOOGA    CLEAR     74  68  81 CALM      30.10R
$$

SKY/WX REPORTED AS FAIR MEANS FEW OR NO CLOUDS BELOW
12 THOUSAND FEET.



USA.gov is the U.S. government's official web portal to all federal, state and local government web resources and services.